Wind_Speed
9 10 10 10 12 13 13 13 12 11 12 13 13 12 12 12 12 13 13 13 12 12 12 12 11 9 8 5 4 4 2 2 7 8 7 9 10 11 11 12 17 23 26 26 25 25 24 24 24 24 23 20 17 15 15 14 13 11 10 10 9 8
10 10 10 10 12 13 12 12 10 10 12 12 12 11 12 12 11 11 12 13 13 13 13 12 10 8 6 4 3 3 1 4 9 9 8 9 10 11 10 10 12 17 23 26 26 25 25 24 25 26 25 22 20 18 17 17 16 14 13 13 12 12
10 10 10 11 12 13 13 12 10 10 11 10 10 11 12 12 12 12 13 13 14 14 14 12 10 7 5 3 1 0 2 8 11 9 9 9 10 10 10 10 10 12 18 23 25 25 24 24 24 26 26 23 22 21 20 20 19 17 16 16 15 15
9 9 11 13 14 15 14 12 10 10 9 9 10 12 12 13 13 14 14 14 15 15 13 11 8 5 3 2 2 3 6 10 11 10 10 9 9 9 10 10 9 10 12 17 22 24 24 24 24 26 27 24 23 22 22 22 21 19 19 19 19 18
8 10 12 14 14 15 14 12 9 9 10 10 11 12 13 14 15 15 14 15 16 14 11 9 7 5 4 5 5 6 9 11 10 10 10 9 9 9 9 9 9 9 10 13 17 22 25 24 25 27 28 25 23 22 22 22 22 21 21 21 21 20
9 11 13 14 14 16 15 11 9 11 12 12 12 12 13 14 15 14 14 15 15 13 11 9 7 5 5 7 7 9 10 10 9 9 9 9 9 8 8 8 9 9 10 11 14 19 23 25 26 28 27 23 22 21 21 22 22 22 21 21 21 21
10 12 13 15 16 16 13 10 11 13 13 12 13 13 14 15 16 15 15 16 15 13 11 9 8 6 6 7 9 10 9 8 8 8 8 8 8 8 7 8 9 10 10 11 12 14 19 23 25 25 24 22 21 20 20 20 21 21 21 21 21 22
12 12 14 16 17 15 12 12 12 12 12 13 14 14 15 17 17 16 16 16 15 13 11 9 8 7 7 8 9 9 8 7 7 7 7 7 8 8 8 7 8 9 10 10 10 11 13 18 22 22 21 20 19 19 19 19 19 20 20 21 21 21
12 14 15 16 17 14 11 12 12 11 13 13 13 14 17 18 18 18 17 15 14 12 10 9 9 8 8 8 8 8 7 6 5 5 6 7 7 7 8 7 7 8 9 10 10 10 9 12 17 19 19 19 18 17 18 18 19 19 20 20 21 21
13 14 15 16 16 13 11 12 12 10 13 13 15 17 19 20 19 18 16 14 12 11 10 10 9 8 8 8 8 7 6 5 4 3 5 6 7 6 7 7 7 7 8 9 10 9 8 8 11 14 17 17 17 17 17 17 18 19 19 19 20 19
11 13 13 13 13 11 10 11 10 10 12 14 16 18 20 22 21 18 15 13 11 10 10 9 8 8 8 8 7 7 7 5 4 4 5 6 6 6 6 6 7 7 6 6 7 7 7 7 8 11 14 14 14 14 15 16 16 17 17 17 17 16
9 12 14 12 11 10 12 11 9 8 10 12 14 18 20 22 21 19 16 14 11 10 10 9 8 8 8 7 7 7 7 5 5 5 5 6 7 7 7 7 7 7 5 5 5 6 7 8 10 12 13 12 11 11 13 14 15 15 15 14 14 15
7 10 11 10 10 11 12 11 9 8 8 9 12 17 20 20 20 18 17 15 13 12 11 10 10 10 9 7 7 7 6 6 5 4 5 6 7 8 8 8 8 7 6 5 6 7 7 8 10 12 15 13 11 11 11 13 15 15 12 11 12 15
6 6 7 9 11 12 12 11 10 9 10 13 14 15 16 15 16 15 15 15 13 12 12 12 12 11 9 8 7 7 7 7 6 4 5 6 8 8 6 7 9 9 8 7 7 7 7 8 10 13 15 13 11 10 12 15 15 11 9 9 12 13
6 8 9 11 13 13 13 13 12 12 15 16 15 15 15 14 14 13 12 12 11 11 12 13 12 11 10 9 8 7 7 7 6 5 5 6 7 7 5 6 8 9 9 8 9 9 8 9 12 14 12 10 9 9 12 14 9 4 5 8 10 9
9 12 13 15 15 14 16 16 15 16 17 16 14 13 12 12 12 11 11 12 12 13 13 13 12 12 12 10 9 8 8 9 6 5 6 7 7 7 6 6 7 7 7 8 10 9 8 8 11 11 9 8 8 8 11 9 2 1 3 6 8 7
11 13 15 16 16 16 18 18 18 18 17 15 14 13 13 12 12 12 12 13 13 14 14 13 13 12 12 11 10 9 10 9 8 6 7 8 8 8 8 7 8 8 8 10 11 9 8 8 8 8 8 7 7 8 9 6 2 2 2 5 6 5
13 14 16 16 17 18 19 20 20 19 17 15 14 14 13 13 12 11 11 11 12 13 14 13 13 12 12 11 10 10 10 10 9 8 8 8 9 9 9 9 9 9 8 11 12 10 10 8 7 8 8 8 8 8 8 6 3 3 3 4 4 3
13 14 15 16 16 18 20 20 19 18 15 13 12 12 11 11 10 8 7 6 8 10 11 12 12 12 12 12 11 12 12 11 9 9 9 9 9 9 9 10 10 9 10 11 12 12 11 9 9 10 9 9 9 9 8 5 3 4 5 5 4 4
12 12 13 14 14 16 18 19 18 16 13 12 11 11 10 9 7 6 6 5 5 6 7 9 10 11 12 12 13 13 12 11 11 11 11 11 10 10 11 11 11 11 12 12 12 12 12 11 10 11 10 10 10 9 8 5 5 5 5 6 5 5
10 11 12 12 12 14 16 17 17 16 14 13 12 11 11 9 8 7 6 4 3 3 5 7 8 10 11 12 13 13 12 12 13 12 12 11 10 11 12 13 12 12 12 13 12 11 11 11 11 11 11 10 10 9 7 6 6 7 7 7 6 5
9 12 13 13 13 15 16 15 15 16 15 15 14 14 13 12 11 9 7 5 4 4 4 6 7 8 9 10 12 12 12 13 13 12 12 10 10 12 13 13 13 12 12 12 12 11 11 11 11 12 12 10 9 8 8 8 7 8 8 7 7 6
11 11 12 15 16 17 18 17 16 16 16 15 15 15 14 13 12 10 8 6 5 5 5 6 7 7 8 9 10 11 12 11 11 11 12 11 10 12 13 14 13 13 13 13 12 12 12 12 12 13 12 10 10 9 9 9 9 9 9 8 7 7
12 11 13 17 19 19 18 18 17 17 16 15 14 14 13 13 12 11 9 8 6 5 4 4 6 6 7 8 9 10 10 10 10 11 11 11 10 12 14 14 13 13 14 13 12 12 13 13 13 12 11 10 10 9 9 10 11 10 10 9 7 7
13 13 15 19 20 19 18 18 18 17 16 15 13 12 12 11 11 10 9 8 7 6 5 4 4 5 5 6 8 9 9 10 11 11 11 11 11 12 13 13 12 12 13 13 13 13 13 13 12 12 11 11 10 9 10 12 12 12 10 9 8 7
14 15 18 20 21 19 17 16 15 14 13 11 10 10 11 10 9 8 7 6 5 5 5 5 3 3 4 5 7 8 9 10 11 12 12 12 12 13 13 13 13 13 13 13 13 13 12 12 11 11 12 12 11 11 12 12 12 12 10 9 9 8
15 17 20 21 21 19 17 15 14 12 10 9 8 8 8 8 7 6 5 4 3 2 3 4 3 2 2 4 7 9 10 11 11 11 13 13 12 13 13 14 14 13 12 12 13 13 13 12 12 12 13 14 14 14 14 12 11 11 9 9 10 9
15 17 19 19 19 18 16 15 14 12 10 9 8 6 6 6 5 4 4 3 2 1 1 2 2 1 1 2 4 6 8 10 10 11 11 11 11 12 13 14 13 12 12 13 14 14 14 13 13 13 14 14 15 15 14 12 12 11 9 9 8 8
14 16 16 16 16 16 15 15 13 11 9 8 7 5 5 4 4 3 2 1 0 0 1 1 1 1 1 1 1 1 4 7 9 11 10 10 10 11 12 12 12 12 13 14 14 14 14 13 12 13 13 13 14 14 14 13 13 12 10 8 7 7
15 16 16 16 16 14 14 14 12 10 8 7 6 5 3 2 1 0 1 3 3 4 3 3 3 3 2 2 2 1 1 4 7 9 10 11 11 11 12 12 12 12 12 13 12 12 12 12 12 13 12 12 13 13 13 12 12 12 10 9 7 7
15 17 17 18 17 14 14 15 13 10 9 7 6 5 3 2 2 3 4 6 7 8 7 6 5 4 3 2 1 0 0 2 4 6 9 11 12 12 13 12 11 12 12 12 12 12 12 12 13 13 12 12 13 12 11 10 10 10 9 8 7 8
15 17 18 19 17 16 16 15 13 12 11 9 8 6 4 3 4 5 6 7 7 7 8 8 7 6 5 4 4 2 1 2 4 5 7 8 10 12 13 12 11 11 11 11 11 11 12 12 13 12 12 13 13 13 12 11 10 8 7 7 7 8
16 17 18 18 17 17 16 16 14 13 12 11 9 7 6 6 7 7 8 8 7 7 7 7 7 6 5 5 6 3 1 2 4 6 7 7 7 10 11 10 9 8 7 8 10 11 13 13 13 12 13 13 13 13 13 12 11 10 9 9 8 8
18 18 19 18 18 18 18 17 16 15 14 12 10 8 8 9 9 9 9 9 8 6 5 5 5 5 5 6 7 5 3 2 2 4 4 6 7 8 8 7 6 6 6 7 9 11 12 12 12 12 13 13 13 13 12 11 10 11 11 10 10 8
20 19 19 19 18 19 19 19 18 17 15 13 12 10 9 9 9 9 9 8 7 6 5 6 5 4 4 5 7 6 4 3 2 2 3 6 7 7 7 6 6 5 4 5 6 7 8 9 9 10 11 12 12 11 10 9 9 10 11 11 10 10
19 18 18 18 19 20 20 20 19 18 16 15 13 11 8 8 7 8 8 7 6 5 5 6 6 5 4 5 7 6 5 5 4 3 4 6 7 7 7 7 6 5 4 3 3 4 5 6 7 7 8 9 10 9 8 8 8 9 10 11 12 12
18 17 18 18 19 20 19 19 19 18 17 16 15 12 9 8 7 7 7 6 5 4 2 4 6 6 5 5 6 6 6 5 5 5 5 6 7 8 8 7 6 5 4 3 2 3 3 4 5 6 7 8 9 8 8 9 9 9 11 12 12 11
Wind_Direction
257 258 257 245 234 230 230 225 218 221 223 221 221 222 223 225 222 215 212 207 200 194 190 185 179 170 166 161 131 117 130 279 275 257 239 233 231 231 224 219 219 220 221 223 226 227 227 228 230 233 233 229 228 227 230 235 238 239 243 246 249 252
256 259 251 238 235 234 232 231 226 224 224 222 222 223 223 221 217 209 204 201 195 186 180 174 166 159 151 137 113 114 156 273 270 260 250 244 239 239 235 227 220 218 221 223 225 227 228 229 231 235 235 231 231 230 232 236 240 245 250 252 255 258
256 254 244 237 233 231 234 234 231 229 224 223 224 222 217 211 205 199 198 194 186 178 172 166 159 153 145 136 129 41 283 272 265 258 252 246 242 244 245 241 228 218 219 221 223 225 228 229 231 235 236 232 231 231 234 237 241 246 251 255 258 261
257 248 240 241 230 220 227 235 238 236 226 223 223 217 209 204 200 196 195 186 176 172 169 167 164 161 168 207 261 286 277 268 262 255 250 244 241 242 245 248 241 225 217 218 221 223 226 228 231 235 236 232 230 231 235 239 243 247 251 256 260 263
254 242 233 233 226 221 231 243 244 233 221 216 216 213 204 198 198 194 191 184 176 174 176 182 186 192 224 247 260 265 262 260 257 250 245 240 239 240 241 244 245 234 220 216 217 219 223 225 229 234 236 233 232 233 235 241 245 249 252 255 260 265
241 236 233 230 231 235 238 238 229 222 218 208 204 209 205 196 191 189 188 185 179 182 189 195 201 206 228 246 251 252 252 253 251 244 240 238 236 236 237 239 244 241 228 221 219 218 220 222 226 233 237 236 234 234 236 240 244 249 252 256 259 263
231 230 237 238 239 240 233 228 227 227 223 210 203 203 203 194 184 183 187 186 185 189 193 196 202 206 222 239 245 246 246 248 247 240 238 239 235 232 234 236 242 246 238 227 225 225 223 223 226 232 237 238 237 236 237 240 244 248 252 255 257 261
230 228 233 240 241 237 229 231 227 219 218 214 209 201 197 192 182 184 189 190 192 193 195 198 204 213 227 241 247 245 241 243 246 241 239 240 237 232 233 236 237 245 246 236 230 231 230 227 227 230 235 238 237 238 239 241 243 247 250 253 256 259
236 231 225 234 240 236 232 228 215 210 218 217 214 206 196 188 182 186 190 191 193 195 202 207 209 217 232 243 243 238 238 241 241 241 240 238 237 233 233 235 234 241 246 240 232 232 233 232 230 230 233 236 237 238 240 242 244 246 250 254 257 260
248 242 232 234 238 240 234 221 213 220 225 219 218 210 195 186 182 184 189 192 192 197 207 210 211 221 231 235 232 229 228 231 227 230 236 232 231 230 227 227 230 235 238 237 232 231 235 236 235 233 233 233 234 237 241 244 248 250 253 256 258 261
256 251 244 232 234 238 221 214 223 229 227 223 221 212 196 188 186 185 186 190 190 196 207 209 216 226 229 229 229 226 218 222 225 223 233 231 227 226 216 213 225 231 231 233 232 232 233 235 240 238 233 229 230 235 240 245 249 251 253 254 257 263
254 255 248 226 221 220 203 209 224 223 222 220 214 210 204 198 196 193 189 188 187 196 209 213 224 229 229 228 230 228 218 221 226 225 235 233 225 223 214 208 219 228 224 221 229 229 221 224 236 239 236 230 227 232 238 243 247 247 249 254 261 266
252 257 243 215 201 196 193 200 203 207 207 191 188 198 205 206 202 195 191 192 193 202 213 216 227 231 229 227 226 228 220 216 223 222 227 225 220 223 222 215 216 223 221 212 216 213 208 220 229 230 231 229 225 230 239 244 244 245 251 261 268 267
244 233 215 196 187 183 184 188 188 191 176 159 161 169 175 181 180 179 185 192 197 208 217 219 227 228 225 226 223 224 222 217 217 210 211 210 212 217 221 217 214 219 225 223 217 205 203 220 221 217 221 223 224 230 236 241 241 245 258 267 266 263
211 192 185 181 179 176 178 180 174 165 156 152 152 149 148 153 160 168 179 190 201 212 220 223 226 223 221 223 219 218 223 224 216 203 205 206 208 212 209 209 211 216 225 227 215 203 199 215 220 213 211 216 223 226 232 239 243 244 252 255 255 252
187 178 175 172 170 170 170 166 156 149 149 151 149 147 151 157 165 179 192 200 207 212 217 220 221 218 218 218 213 211 217 222 218 207 209 210 207 206 199 194 201 209 213 206 197 195 195 211 219 210 204 215 222 229 241 248 245 153 223 240 249 246
172 169 167 162 158 158 156 152 149 147 150 153 155 159 166 174 185 198 206 209 210 212 215 216 217 216 215 215 214 213 215 217 216 213 214 215 207 204 202 188 190 200 196 185 181 186 197 208 215 208 203 213 220 235 250 254 226 196 211 227 244 240
162 159 156 153 151 150 149 149 152 155 160 163 163 167 175 184 194 200 204 208 213 216 216 214 215 215 213 214 215 215 216 215 212 213 215 214 206 208 210 194 192 196 189 184 179 182 193 198 208 209 203 207 220 234 243 245 231 207 188 198 215 217
161 160 155 153 153 152 153 155 157 161 166 166 164 170 178 183 186 184 183 190 203 211 211 205 204 209 210 209 212 213 214 212 207 207 207 203 200 209 206 192 189 187 184 183 178 181 188 191 202 207 204 207 218 229 234 235 216 194 193 205 211 215
164 164 161 158 153 152 157 159 160 163 163 159 160 164 165 164 156 144 144 155 178 195 199 197 199 204 205 205 209 213 212 207 203 202 200 194 194 200 196 186 181 178 183 184 176 181 189 192 202 207 204 204 209 218 226 224 207 202 216 232 233 228
168 163 161 161 155 153 158 159 159 157 154 151 148 145 140 133 122 117 124 134 146 162 178 188 196 200 198 200 207 212 209 204 203 201 200 199 195 194 194 191 184 180 189 191 183 187 194 198 206 207 200 199 207 215 225 230 222 217 223 231 234 238
170 162 161 166 163 160 159 155 152 147 145 143 137 131 124 115 110 109 115 123 125 128 153 176 189 195 194 196 204 209 208 204 204 201 201 203 197 196 200 196 188 187 194 195 193 197 202 206 212 209 199 197 210 219 224 231 235 236 233 231 236 245
167 165 166 169 168 165 159 150 144 142 140 140 135 128 120 113 110 108 108 113 120 125 139 166 184 192 190 193 199 204 207 205 202 202 203 203 199 200 204 197 191 193 194 196 200 202 205 209 211 211 207 206 215 220 223 231 243 250 245 243 249 255
167 168 170 170 167 164 158 150 146 145 143 140 134 126 121 118 115 113 110 108 112 125 141 162 180 189 191 194 196 201 208 206 202 205 207 205 201 201 203 200 197 196 194 199 206 206 209 211 210 214 218 221 222 221 228 239 248 253 253 254 255 260
171 169 169 168 166 163 159 155 152 149 146 142 136 129 122 118 116 114 112 109 108 115 131 150 168 180 188 195 198 205 212 209 207 209 209 206 198 196 203 208 206 200 197 203 210 211 213 214 213 217 222 226 226 224 233 242 247 252 253 251 248 249
175 170 168 167 166 164 160 156 153 153 152 147 140 130 122 117 114 112 112 113 111 109 114 121 136 164 184 196 202 208 213 212 208 204 205 206 197 192 200 210 211 206 203 206 212 215 218 219 221 224 224 224 225 223 230 239 247 253 251 242 239 238
176 172 170 170 169 167 162 157 158 163 162 150 141 134 129 121 112 112 116 117 118 105 95 94 95 115 166 192 202 207 212 215 213 207 206 205 198 193 196 205 211 210 210 213 217 220 223 225 228 228 224 223 222 222 230 241 245 247 243 235 231 231
176 176 173 172 172 170 171 170 169 175 172 157 152 149 139 125 115 115 117 117 120 79 42 67 82 91 122 184 196 203 210 214 215 216 213 207 202 199 197 202 209 211 213 217 221 224 224 224 227 226 220 219 221 224 233 242 244 243 239 233 233 232
179 180 177 177 178 179 187 188 182 185 185 176 173 169 154 138 130 125 117 135 167 276 296 332 356 355 358 352 353 219 216 216 216 218 217 210 205 204 201 199 205 212 217 221 225 224 222 223 225 222 217 217 224 231 239 242 245 248 245 241 245 245
182 181 182 182 183 189 195 192 186 189 194 197 198 193 183 167 154 173 313 301 293 281 268 270 283 299 330 351 357 356 269 227 219 218 216 211 202 200 200 199 204 214 221 227 231 229 227 228 227 225 222 222 229 239 248 251 249 248 246 245 248 250
182 182 185 185 186 192 191 185 185 194 200 206 213 215 221 246 297 315 313 304 294 282 267 251 246 256 272 294 298 296 268 235 220 218 218 212 203 199 202 206 214 223 228 232 234 234 233 232 231 231 229 228 229 233 240 246 245 242 241 243 249 252
182 185 190 191 190 189 186 184 192 201 205 211 218 228 245 269 297 312 312 307 304 293 274 256 246 243 245 263 272 253 164 205 212 220 230 224 210 205 205 207 216 225 228 227 228 232 234 234 235 236 231 227 224 223 227 231 231 229 226 228 237 244
187 189 194 195 192 189 188 192 201 206 210 217 226 239 260 278 297 309 313 314 321 318 293 267 254 248 236 242 257 253 179 181 204 215 227 224 210 206 205 201 205 214 220 222 228 237 239 236 235 234 231 227 225 225 228 229 224 221 219 220 228 236
190 194 199 198 197 196 196 202 210 214 216 222 232 249 271 287 298 305 311 316 321 320 297 268 252 250 238 228 238 235 200 179 205 217 212 199 192 196 202 200 200 213 228 238 241 240 236 233 232 234 234 233 234 235 233 230 226 223 222 223 229 236
193 198 204 205 204 203 205 212 218 220 222 225 234 253 279 291 294 296 302 310 314 304 274 253 239 236 230 223 226 220 193 166 174 197 182 178 181 184 191 196 203 218 236 244 241 227 216 219 226 233 239 240 242 242 238 231 226 226 226 228 237 241
200 204 210 211 209 209 212 217 219 222 228 231 238 255 275 282 283 288 294 302 308 300 264 234 220 211 209 214 214 204 183 163 155 159 161 167 174 180 185 191 200 210 218 224 224 211 204 209 215 221 230 236 237 236 235 231 229 229 233 241 250 253
212 214 217 215 213 214 217 219 220 223 228 234 244 257 267 273 278 284 292 302 309 310 250 203 199 191 191 205 204 190 171 157 148 147 156 168 174 179 184 189 194 196 198 208 202 192 195 200 205 208 211 220 227 229 231 239 243 242 243 248 255 266
Height
3146 3146 3147 3147 3148 3149 3149 3150 3151 3151 3152 3153 3154 3155 3156 3157 3158 3159 3160 3160 3161 3162 3162 3163 3164 3165 3166 3166 3167 3167 3168 3171 3172 3172 3171 3171 3171 3171 3171 3172 3172 3173 3174 3175 3175 3176 3177 3177 3178 3177 3179 3182 3184 3185 3185 3185 3186 3186 3187 3187 3187 3188
3145 3146 3146 3146 3147 3148 3149 3149 3150 3151 3152 3153 3153 3155 3156 3156 3157 3158 3159 3160 3161 3162 3162 3163 3164 3164 3165 3165 3166 3166 3168 3170 3171 3171 3171 3170 3170 3170 3170 3170 3171 3171 3172 3173 3174 3175 3175 3176 3177 3176 3177 3181 3183 3184 3185 3185 3185 3186 3186 3187 3187 3187
3145 3145 3145 3145 3146 3146 3147 3148 3150 3151 3151 3152 3153 3154 3155 3155 3156 3158 3159 3159 3160 3161 3162 3162 3163 3163 3164 3164 3165 3166 3167 3169 3170 3170 3170 3169 3169 3169 3169 3169 3169 3170 3170 3171 3172 3173 3174 3175 3175 3174 3176 3179 3181 3183 3183 3184 3184 3185 3186 3186 3186 3187
3144 3144 3144 3144 3144 3145 3145 3147 3149 3150 3150 3151 3152 3153 3154 3155 3156 3157 3158 3159 3159 3160 3161 3161 3162 3162 3163 3163 3164 3165 3167 3169 3169 3169 3168 3168 3168 3167 3167 3168 3168 3168 3169 3170 3171 3172 3173 3173 3174 3173 3173 3177 3180 3182 3183 3183 3184 3185 3185 3185 3186 3186
3143 3143 3143 3143 3143 3143 3144 3147 3149 3149 3149 3150 3151 3152 3153 3154 3155 3156 3157 3158 3159 3160 3160 3161 3161 3161 3162 3163 3164 3165 3167 3168 3168 3167 3167 3167 3166 3166 3166 3166 3166 3167 3168 3168 3169 3170 3170 3171 3172 3170 3171 3175 3179 3181 3182 3183 3183 3184 3184 3185 3185 3185
3142 3142 3142 3142 3142 3143 3144 3147 3148 3148 3148 3149 3150 3151 3153 3153 3155 3156 3157 3158 3158 3159 3160 3160 3160 3160 3161 3163 3164 3165 3166 3166 3166 3166 3165 3165 3165 3165 3165 3165 3165 3166 3166 3167 3167 3167 3168 3169 3170 3169 3170 3175 3178 3180 3181 3182 3182 3183 3183 3184 3184 3184
3140 3141 3141 3141 3142 3143 3145 3147 3146 3146 3148 3149 3149 3150 3152 3153 3154 3156 3157 3157 3158 3159 3159 3160 3160 3160 3161 3163 3164 3164 3165 3165 3164 3164 3164 3164 3164 3164 3164 3164 3164 3165 3165 3166 3166 3167 3168 3169 3169 3169 3171 3174 3176 3178 3179 3180 3181 3181 3182 3182 3183 3183
3139 3140 3140 3141 3141 3142 3144 3146 3146 3146 3148 3149 3149 3149 3151 3152 3154 3155 3156 3157 3157 3158 3159 3159 3159 3160 3161 3162 3163 3163 3163 3163 3163 3163 3163 3163 3163 3163 3163 3163 3164 3164 3164 3165 3167 3167 3169 3169 3170 3170 3170 3173 3175 3176 3178 3178 3179 3179 3180 3180 3181 3182
3138 3138 3139 3140 3141 3141 3144 3146 3146 3147 3147 3148 3148 3149 3150 3152 3153 3155 3155 3156 3157 3157 3158 3158 3159 3160 3161 3162 3162 3162 3162 3162 3162 3162 3162 3162 3161 3162 3162 3163 3163 3163 3164 3166 3167 3167 3168 3169 3169 3170 3170 3172 3174 3175 3176 3176 3177 3177 3178 3179 3179 3180
3137 3137 3138 3140 3141 3142 3144 3145 3145 3146 3146 3147 3147 3148 3149 3151 3152 3154 3155 3155 3156 3157 3157 3157 3158 3159 3160 3161 3161 3161 3161 3161 3161 3161 3161 3161 3161 3161 3162 3162 3162 3163 3164 3166 3166 3167 3168 3168 3169 3170 3170 3171 3172 3173 3174 3174 3175 3176 3177 3177 3178 3179
3136 3136 3137 3139 3141 3142 3143 3144 3144 3145 3145 3146 3147 3147 3148 3150 3151 3153 3154 3155 3155 3156 3156 3157 3158 3158 3159 3160 3160 3160 3160 3161 3161 3161 3160 3160 3160 3161 3161 3162 3162 3163 3164 3165 3165 3166 3168 3168 3169 3169 3170 3170 3171 3172 3172 3173 3174 3175 3175 3176 3177 3178
3135 3134 3135 3138 3140 3140 3141 3142 3143 3143 3144 3145 3145 3146 3148 3149 3151 3152 3154 3154 3155 3155 3155 3156 3157 3158 3158 3159 3159 3159 3160 3160 3160 3160 3160 3160 3160 3160 3161 3161 3162 3162 3163 3164 3165 3166 3168 3169 3169 3169 3169 3170 3170 3171 3171 3172 3173 3173 3174 3176 3177 3177
3134 3133 3135 3137 3138 3138 3140 3141 3142 3143 3143 3144 3145 3145 3146 3148 3150 3151 3153 3154 3154 3154 3155 3156 3156 3156 3157 3158 3158 3158 3159 3159 3159 3159 3159 3159 3159 3160 3160 3161 3161 3162 3162 3164 3164 3165 3167 3168 3168 3169 3169 3169 3169 3170 3170 3170 3171 3173 3175 3176 3176 3174
3133 3133 3134 3136 3137 3138 3140 3140 3141 3142 3143 3144 3144 3144 3145 3147 3148 3150 3152 3153 3153 3154 3154 3155 3155 3155 3156 3156 3157 3157 3158 3158 3158 3158 3158 3158 3158 3159 3160 3161 3161 3161 3162 3164 3164 3165 3166 3167 3167 3168 3169 3168 3168 3169 3169 3168 3170 3174 3176 3175 3173 3173
3133 3133 3134 3135 3135 3137 3139 3140 3140 3141 3142 3144 3144 3144 3145 3147 3148 3149 3151 3152 3153 3153 3154 3154 3154 3155 3155 3155 3156 3156 3157 3157 3157 3158 3158 3158 3158 3158 3160 3160 3161 3161 3161 3163 3164 3165 3166 3166 3167 3168 3167 3167 3167 3168 3167 3167 3172 3176 3175 3173 3171 3172
3132 3132 3133 3133 3134 3136 3138 3139 3140 3141 3143 3144 3144 3144 3145 3146 3147 3149 3150 3151 3152 3152 3153 3153 3153 3154 3154 3154 3155 3156 3156 3156 3156 3157 3157 3158 3158 3158 3159 3160 3160 3160 3161 3163 3164 3164 3164 3165 3167 3167 3166 3166 3167 3167 3166 3168 3174 3175 3173 3171 3171 3172
3131 3131 3132 3133 3134 3136 3137 3138 3140 3141 3142 3143 3144 3144 3145 3146 3147 3148 3150 3150 3150 3151 3151 3152 3152 3152 3153 3153 3154 3154 3155 3155 3156 3156 3157 3158 3158 3158 3159 3159 3160 3160 3161 3162 3163 3163 3164 3165 3166 3166 3165 3166 3166 3166 3166 3170 3173 3173 3172 3171 3170 3171
3131 3131 3132 3133 3134 3135 3137 3138 3140 3141 3142 3143 3143 3144 3145 3146 3147 3148 3149 3149 3149 3150 3150 3151 3151 3151 3152 3152 3153 3153 3154 3154 3155 3156 3157 3157 3158 3158 3158 3159 3160 3160 3161 3162 3163 3163 3164 3164 3165 3165 3166 3166 3166 3166 3166 3169 3171 3171 3171 3171 3171 3171
3131 3131 3132 3133 3134 3135 3137 3139 3140 3141 3142 3143 3143 3144 3145 3146 3146 3147 3148 3148 3148 3148 3149 3150 3150 3150 3151 3152 3152 3152 3153 3154 3154 3155 3156 3156 3157 3157 3158 3160 3160 3160 3161 3162 3163 3163 3163 3164 3164 3165 3165 3166 3166 3166 3166 3168 3170 3170 3170 3170 3170 3170
3131 3131 3132 3133 3134 3136 3137 3139 3141 3141 3142 3143 3143 3144 3145 3145 3146 3147 3147 3147 3147 3147 3148 3149 3150 3150 3151 3151 3151 3152 3153 3154 3154 3155 3155 3156 3156 3157 3158 3159 3160 3160 3161 3162 3163 3163 3163 3163 3164 3165 3165 3165 3166 3165 3166 3167 3169 3169 3169 3169 3170 3170
3131 3132 3133 3134 3135 3136 3138 3140 3141 3142 3143 3143 3144 3144 3145 3146 3146 3146 3146 3146 3146 3147 3147 3148 3149 3150 3150 3151 3151 3152 3153 3153 3154 3154 3155 3155 3156 3156 3157 3158 3159 3160 3160 3161 3162 3163 3162 3163 3164 3165 3165 3165 3165 3165 3166 3167 3168 3168 3168 3169 3169 3170
3132 3132 3133 3134 3135 3137 3139 3141 3142 3143 3144 3144 3145 3145 3146 3147 3146 3146 3146 3145 3146 3146 3147 3147 3148 3148 3150 3151 3151 3151 3152 3153 3153 3154 3154 3155 3156 3156 3157 3158 3158 3159 3160 3160 3161 3162 3162 3163 3164 3164 3165 3165 3165 3165 3166 3166 3166 3166 3167 3168 3169 3170
3132 3133 3133 3135 3136 3138 3140 3141 3142 3143 3144 3145 3146 3146 3147 3147 3147 3146 3146 3145 3145 3146 3146 3147 3147 3148 3149 3150 3150 3151 3151 3152 3152 3153 3154 3155 3156 3156 3157 3157 3157 3158 3159 3160 3161 3161 3162 3163 3163 3164 3164 3164 3164 3165 3165 3165 3164 3165 3166 3168 3169 3169
3133 3133 3134 3135 3137 3139 3140 3141 3142 3143 3144 3145 3146 3146 3147 3147 3147 3147 3146 3146 3146 3146 3146 3147 3147 3148 3149 3149 3150 3150 3150 3150 3151 3152 3153 3154 3155 3156 3156 3156 3157 3158 3159 3159 3160 3161 3162 3162 3163 3163 3163 3163 3164 3164 3164 3164 3164 3165 3166 3168 3168 3169
3133 3134 3135 3136 3137 3139 3140 3141 3142 3142 3143 3145 3146 3146 3147 3147 3148 3147 3147 3147 3147 3147 3147 3147 3147 3147 3148 3148 3149 3149 3149 3149 3151 3152 3152 3154 3155 3156 3156 3156 3156 3157 3158 3159 3160 3160 3161 3161 3162 3162 3163 3163 3163 3164 3164 3164 3164 3165 3167 3168 3168 3169
3134 3135 3136 3137 3139 3140 3141 3142 3143 3143 3144 3145 3146 3146 3147 3148 3148 3148 3148 3147 3147 3147 3148 3148 3147 3147 3147 3148 3148 3149 3149 3149 3150 3151 3152 3153 3154 3155 3156 3155 3156 3157 3158 3158 3159 3160 3160 3160 3161 3161 3162 3162 3163 3164 3163 3164 3164 3165 3167 3168 3168 3169
3134 3136 3137 3139 3140 3141 3142 3143 3144 3145 3145 3146 3146 3147 3147 3148 3148 3148 3148 3148 3148 3148 3148 3148 3148 3147 3147 3147 3148 3148 3149 3149 3150 3151 3152 3152 3153 3154 3155 3155 3155 3156 3157 3157 3158 3159 3159 3160 3160 3161 3161 3162 3163 3163 3163 3163 3164 3164 3166 3167 3168 3168
3134 3136 3138 3140 3141 3142 3143 3144 3145 3145 3146 3146 3147 3148 3148 3149 3149 3149 3148 3148 3148 3148 3148 3148 3148 3147 3147 3146 3147 3147 3148 3149 3149 3150 3151 3152 3153 3154 3154 3154 3154 3155 3156 3157 3157 3158 3158 3159 3160 3160 3161 3162 3162 3162 3163 3163 3163 3163 3164 3166 3167 3168
3135 3136 3138 3140 3141 3142 3144 3145 3145 3146 3146 3147 3148 3148 3149 3149 3149 3149 3149 3148 3148 3148 3148 3148 3148 3147 3147 3146 3146 3146 3147 3147 3148 3149 3150 3151 3153 3153 3154 3154 3155 3155 3156 3156 3156 3157 3158 3159 3159 3160 3160 3161 3162 3162 3162 3163 3163 3162 3163 3164 3165 3166
3135 3136 3138 3139 3141 3142 3143 3145 3146 3146 3147 3147 3148 3148 3149 3149 3149 3149 3149 3148 3148 3147 3147 3147 3147 3147 3147 3147 3146 3146 3146 3146 3147 3148 3149 3150 3152 3153 3153 3154 3154 3155 3155 3156 3156 3157 3158 3158 3159 3159 3160 3160 3161 3161 3162 3163 3163 3162 3162 3163 3164 3164
3135 3137 3138 3139 3141 3142 3144 3145 3146 3146 3147 3147 3147 3148 3148 3148 3148 3148 3148 3148 3148 3147 3146 3147 3147 3147 3147 3147 3146 3146 3146 3146 3146 3147 3147 3148 3150 3151 3152 3153 3153 3154 3154 3155 3156 3156 3157 3157 3158 3158 3159 3160 3160 3161 3161 3162 3163 3163 3163 3163 3164 3164
3135 3137 3138 3139 3141 3142 3143 3144 3145 3146 3146 3147 3147 3147 3147 3147 3148 3148 3148 3148 3147 3147 3146 3145 3145 3146 3146 3146 3146 3145 3145 3145 3146 3146 3146 3147 3148 3149 3151 3152 3152 3153 3154 3154 3155 3155 3156 3156 3157 3157 3158 3159 3159 3160 3160 3161 3162 3163 3163 3163 3163 3164
3135 3136 3137 3139 3140 3142 3143 3144 3145 3145 3145 3146 3146 3146 3146 3146 3147 3147 3146 3146 3146 3146 3145 3144 3144 3144 3145 3145 3145 3144 3144 3144 3145 3145 3146 3146 3147 3148 3150 3151 3152 3153 3153 3153 3154 3154 3155 3155 3156 3156 3157 3158 3158 3159 3160 3161 3162 3162 3162 3163 3163 3163
3134 3136 3137 3138 3140 3141 3142 3143 3144 3144 3144 3145 3145 3145 3145 3145 3145 3145 3145 3145 3145 3145 3144 3143 3143 3143 3143 3144 3144 3144 3143 3143 3144 3145 3146 3146 3147 3148 3149 3150 3152 3152 3153 3153 3153 3153 3153 3154 3155 3155 3156 3157 3158 3159 3160 3161 3161 3162 3162 3163 3163 3163
3133 3135 3136 3137 3139 3140 3141 3141 3142 3143 3143 3144 3144 3144 3145 3145 3145 3144 3144 3144 3144 3144 3143 3143 3143 3143 3142 3143 3143 3143 3143 3143 3144 3145 3146 3147 3147 3148 3149 3150 3151 3151 3152 3152 3152 3152 3152 3153 3154 3154 3155 3156 3157 3158 3159 3161 3161 3162 3162 3162 3163 3163
3132 3133 3134 3136 3138 3139 3140 3140 3141 3141 3142 3143 3143 3144 3144 3144 3144 3144 3144 3143 3143 3142 3142 3142 3143 3143 3142 3142 3142 3142 3143 3143 3144 3144 3145 3146 3147 3148 3149 3149 3150 3150 3151 3151 3151 3151 3152 3152 3153 3154 3154 3155 3156 3157 3158 3159 3161 3162 3162 3162 3162 3162
3130 3131 3132 3134 3136 3138 3139 3139 3140 3140 3141 3142 3142 3143 3143 3143 3143 3143 3142 3142 3142 3141 3141 3141 3141 3142 3142 3142 3142 3142 3142 3143 3144 3144 3145 3146 3147 3148 3148 3149 3149 3149 3150 3150 3151 3151 3152 3152 3153 3153 3154 3155 3155 3157 3158 3159 3160 3161 3161 3161 3161 3161